星链-2725 (STARLINK-2725 )

导读 | 豆包AI

STARLINK-2725是美国SpaceX公司星链星座的组网卫星,于2021年5月26日发射。它属于星链低轨宽带通信卫星,单星重约227kg,采用平板设计与氪工质霍尔推进器,运行于近地轨道。配备Ku/Ka波段通信载荷与自主避撞系统,旨在为全球提供覆盖广泛的高速宽带互联网服务,寿命末期会主动离轨再入大气层销毁,减少空间碎片影响。

基本信息
目录编号:
48681
目录名称:
STARLINK-2725
国际标识:
2021-044AV
轨道中心:
EARTH
卫星名称:
星链-2725
卫星全名:
星链-2725 (STARLINK-2725 )
卫星状态:
在轨 (已飞行1800 天)
发射日期:
2021-05-26 UTC
国别 :
美国 (US)
星等 :
--
轨道信息
数据来源 国际轨道数据
星历时间: 2026-04-30T06:11:46+0800
16小时前
查看轨道信息
半长轴: 6853.383km
偏心率: 0.0001572
轨道倾角: 53.160°
近地点辐角 92.811°
升交点赤经 197.288°
平近点角 267.307°
近地点: 474.168km
远地点: 476.324km
周期: 94.106分钟
每日圈数: 15.301898
详细信息
固有亮度:
5
最大亮度:
2.5
卫星平台:
Starlink v1.5
覆盖范围:
全球
运营商:
太空探索技术公司
运营商所在国:
美国
制造商(研发单位):
太空探索技术公司
制造商所在国:
美国
使用方式:
暂无
卫星简介
星链(Starlink)计划是由太空探索技术公司(SpaceX)提出的一个巨型低轨卫星互联网星座项目,计划在2019年至2024年间在太空搭建由约1.2万颗卫星组成的“星链”网络,其中1584颗将部署在地球上空550千米处的近地轨道,并从2020年开始工作。该卫星仍在工作。
2D轨道图
3D轨道图
轨道高度分析图
轨道倾角分析图
轨道综合分析图
查看轨道综合分析图